Station Historical Data
Daily Summary for March 6, 2012 Units:  Metric    English   Both
« Previous Day
Next Day »
Daily Weekly Monthly Yearly Custom
  High: Low: Average:
Temperature: 18.3 °C 1.9 °C 9.9 °C
Dew Point: -0.2 °C -4.7 °C -3 °C
Humidity: 64% 21% 43%
Wind Speed: 33.8km/h 3.2km/h 11.6km/h
Wind Gust: 33.8km/h - -
Wind- - SE
Pressure: 1031.4 hPa 1026 hPa -
Precipitation: 0 mm    
Historical Graphs
 
 
Tabular Data for March 6, 2012
Time Temperature Dew Point Pressure Wind Wind Speed Wind Gust Humidity Rainfall Rate (Hourly) Conditions
00:00 3.6 °C -4.6 °C 1029.7 hPa ESE 6.4 km/h 8 km/h 55% 0 mm
00:05 3.5 °C -4.4 °C 1030 hPa ESE 6.4 km/h 8 km/h 56% 0 mm
00:10 3.5 °C -4.4 °C 1030 hPa ESE 8 km/h 8 km/h 56% 0 mm
00:15 3.4 °C -4.5 °C 1029.7 hPa East 8 km/h 8 km/h 56% 0 mm
00:21 3.4 °C -4.1 °C 1029.7 hPa East 4.8 km/h 4.8 km/h 58% 0 mm
00:26 3.3 °C -3.9 °C 1029.7 hPa ESE 4.8 km/h 6.4 km/h 59% 0 mm
00:31 3.2 °C -4 °C 1029.7 hPa ESE 6.4 km/h 6.4 km/h 59% 0 mm
00:36 3.2 °C -4 °C 1029.7 hPa ESE 6.4 km/h 8 km/h 59% 0 mm
00:41 3.1 °C -4.1 °C 1029.7 hPa ESE 6.4 km/h 6.4 km/h 59% 0 mm
00:46 3.2 °C -4.3 °C 1029.7 hPa East 3.2 km/h 8 km/h 58% 0 mm
00:51 3.2 °C -4.3 °C 1029.7 hPa ESE 4.8 km/h 6.4 km/h 58% 0 mm
00:56 3.2 °C -4.2 °C 1029.7 hPa ESE 8 km/h 8 km/h 58% 0 mm
01:01 3.2 °C -4.2 °C 1029.7 hPa East 3.2 km/h 9.7 km/h 58% 0 mm
01:06 3.2 °C -4.3 °C 1029.7 hPa East 8 km/h 9.7 km/h 58% 0 mm
01:11 3.1 °C -4.1 °C 1029.7 hPa ESE 4.8 km/h 6.4 km/h 59% 0 mm
01:16 2.9 °C -4.1 °C 1030 hPa ESE 4.8 km/h 6.4 km/h 60% 0 mm
01:21 2.9 °C -4.3 °C 1030 hPa ESE 6.4 km/h 6.4 km/h 59% 0 mm
01:27 2.9 °C -4.1 °C 1030 hPa ESE 6.4 km/h 6.4 km/h 60% 0 mm
01:32 2.8 °C -4.2 °C 1030 hPa ESE 3.2 km/h 6.4 km/h 60% 0 mm
01:37 2.8 °C -4.2 °C 1030 hPa ESE 8 km/h 8 km/h 60% 0 mm
01:42 2.8 °C -4.2 °C 1030 hPa SE 4.8 km/h 8 km/h 60% 0 mm
01:47 2.7 °C -4.1 °C 1030 hPa ESE 4.8 km/h 6.4 km/h 61% 0 mm
01:52 2.9 °C -4.3 °C 1030 hPa ESE 6.4 km/h 11.3 km/h 59% 0 mm
01:57 2.9 °C -4.1 °C 1030 hPa ESE 6.4 km/h 9.7 km/h 60% 0 mm
02:02 2.9 °C -4.1 °C 1030 hPa ESE 4.8 km/h 8 km/h 60% 0 mm
02:07 2.8 °C -4.2 °C 1030 hPa East 6.4 km/h 8 km/h 60% 0 mm
02:12 2.8 °C -4.2 °C 1030 hPa ESE 4.8 km/h 8 km/h 60% 0 mm
02:17 2.9 °C -4.1 °C 1030 hPa ESE 8 km/h 8 km/h 60% 0 mm
02:22 2.9 °C -4.1 °C 1030 hPa ESE 6.4 km/h 8 km/h 60% 0 mm
02:27 2.9 °C -4.1 °C 1030 hPa ESE 4.8 km/h 8 km/h 60% 0 mm
02:32 2.8 °C -3.9 °C 1030 hPa East 6.4 km/h 8 km/h 61% 0 mm
02:37 2.9 °C -4.1 °C 1030 hPa ESE 4.8 km/h 8 km/h 60% 0 mm
02:42 2.9 °C -3.9 °C 1030 hPa ESE 9.7 km/h 9.7 km/h 61% 0 mm
02:47 2.9 °C -3.9 °C 1030 hPa ESE 8 km/h 9.7 km/h 61% 0 mm
02:52 2.8 °C -3.8 °C 1030 hPa East 8 km/h 9.7 km/h 62% 0 mm
02:57 2.6 °C -3.9 °C 1030 hPa ESE 6.4 km/h 9.7 km/h 62% 0 mm
03:02 2.6 °C -3.7 °C 1030 hPa ESE 6.4 km/h 8 km/h 63% 0 mm
03:07 2.6 °C -4 °C 1030 hPa ESE 6.4 km/h 9.7 km/h 62% 0 mm
03:12 2.6 °C -3.9 °C 1030 hPa ESE 11.3 km/h 11.3 km/h 62% 0 mm
03:17 2.6 °C -4 °C 1029.7 hPa ESE 8 km/h 9.7 km/h 62% 0 mm
03:22 2.5 °C -3.8 °C 1029.7 hPa ESE 6.4 km/h 9.7 km/h 63% 0 mm
03:27 2.5 °C -3.8 °C 1029.7 hPa SE 6.4 km/h 11.3 km/h 63% 0 mm
03:33 2.5 °C -3.8 °C 1029.7 hPa ESE 9.7 km/h 9.7 km/h 63% 0 mm
03:38 2.6 °C -3.8 °C 1029.7 hPa East 6.4 km/h 9.7 km/h 63% 0 mm
03:43 2.5 °C -3.8 °C 1029.7 hPa ESE 8 km/h 9.7 km/h 63% 0 mm
03:48 2.5 °C -3.8 °C 1029.3 hPa ESE 8 km/h 9.7 km/h 63% 0 mm
03:53 2.4 °C -3.9 °C 1029.3 hPa ESE 8 km/h 9.7 km/h 63% 0 mm
03:58 2.4 °C -3.7 °C 1029.3 hPa ESE 6.4 km/h 9.7 km/h 64% 0 mm
04:03 2.3 °C -3.8 °C 1029.3 hPa ESE 6.4 km/h 9.7 km/h 64% 0 mm
04:08 2.3 °C -3.8 °C 1029.3 hPa ESE 6.4 km/h 8 km/h 64% 0 mm
04:13 2.3 °C -4 °C 1029.3 hPa ESE 8 km/h 9.7 km/h 63% 0 mm
04:18 2.4 °C -3.9 °C 1029.3 hPa ESE 8 km/h 9.7 km/h 63% 0 mm
04:23 2.4 °C -4.1 °C 1029.3 hPa ESE 6.4 km/h 9.7 km/h 62% 0 mm
04:28 2.3 °C -4.1 °C 1029.3 hPa ESE 6.4 km/h 9.7 km/h 63% 0 mm
04:33 2.2 °C -3.9 °C 1029.3 hPa ESE 6.4 km/h 9.7 km/h 64% 0 mm
04:38 2.2 °C -4.1 °C 1029.7 hPa ESE 11.3 km/h 12.9 km/h 63% 0 mm
04:43 2.3 °C -4.1 °C 1029.7 hPa ESE 8 km/h 9.7 km/h 63% 0 mm
04:48 2.3 °C -4.1 °C 1029.7 hPa ESE 8 km/h 8 km/h 63% 0 mm
04:53 2.3 °C -4.1 °C 1029.7 hPa SE 6.4 km/h 9.7 km/h 63% 0 mm
04:58 2.4 °C -3.9 °C 1029.7 hPa SE 6.4 km/h 8 km/h 63% 0 mm
05:03 2.5 °C -4.1 °C 1029.7 hPa ESE 6.4 km/h 8 km/h 62% 0 mm
05:08 2.6 °C -4.2 °C 1029.7 hPa SE 4.8 km/h 8 km/h 61% 0 mm
05:13 2.6 °C -4.2 °C 1030 hPa SE 6.4 km/h 8 km/h 61% 0 mm
05:18 2.7 °C -4.1 °C 1029.7 hPa SE 4.8 km/h 9.7 km/h 61% 0 mm
05:23 2.7 °C -3.8 °C 1029.7 hPa ESE 6.4 km/h 9.7 km/h 62% 0 mm
05:28 2.7 °C -3.9 °C 1029.7 hPa ESE 6.4 km/h 9.7 km/h 62% 0 mm
05:33 2.7 °C -3.9 °C 1029.7 hPa ESE 6.4 km/h 12.9 km/h 62% 0 mm
05:38 2.6 °C -3.9 °C 1029.7 hPa SE 6.4 km/h 12.9 km/h 62% 0 mm
05:43 2.4 °C -3.9 °C 1029.7 hPa ESE 9.7 km/h 9.7 km/h 63% 0 mm
05:48 2.4 °C -4.1 °C 1029.7 hPa ESE 11.3 km/h 11.3 km/h 62% 0 mm
05:53 2.4 °C -4.1 °C 1029.7 hPa ESE 8 km/h 14.5 km/h 62% 0 mm
05:58 2.3 °C -4 °C 1029.7 hPa ESE 6.4 km/h 9.7 km/h 63% 0 mm
06:03 2.2 °C -4.1 °C 1029.7 hPa ESE 9.7 km/h 11.3 km/h 63% 0 mm
06:08 2.2 °C -4.2 °C 1029.7 hPa ESE 6.4 km/h 9.7 km/h 63% 0 mm
06:13 2.3 °C -4.2 °C 1029.7 hPa ESE 9.7 km/h 12.9 km/h 62% 0 mm
06:18 2.3 °C -4.2 °C 1029.7 hPa ESE 6.4 km/h 9.7 km/h 62% 0 mm
06:23 2.3 °C -4.2 °C 1030 hPa ESE 9.7 km/h 9.7 km/h 62% 0 mm
06:28 2.2 °C -4.1 °C 1030 hPa SE 6.4 km/h 9.7 km/h 63% 0 mm
06:34 2.1 °C -4.2 °C 1030 hPa ESE 6.4 km/h 9.7 km/h 63% 0 mm
06:39 2 °C -4.3 °C 1030 hPa ESE 8 km/h 9.7 km/h 63% 0 mm
06:44 2 °C -4.3 °C 1030 hPa ESE 6.4 km/h 9.7 km/h 63% 0 mm
06:49 1.9 °C -4.3 °C 1030 hPa ESE 4.8 km/h 9.7 km/h 63% 0 mm
06:54 2 °C -4.3 °C 1030 hPa ESE 4.8 km/h 9.7 km/h 63% 0 mm
06:59 2.1 °C -4.2 °C 1030 hPa ESE 6.4 km/h 9.7 km/h 63% 0 mm
07:04 2.2 °C -4.3 °C 1030 hPa ESE 11.3 km/h 12.9 km/h 62% 0 mm
07:09 2.4 °C -4.2 °C 1030 hPa SE 9.7 km/h 12.9 km/h 62% 0 mm
07:14 2.4 °C -4.1 °C 1030 hPa ESE 11.3 km/h 14.5 km/h 62% 0 mm
07:19 2.5 °C -4.1 °C 1030 hPa ESE 8 km/h 14.5 km/h 62% 0 mm
07:24 2.6 °C -4.2 °C 1030 hPa ESE 12.9 km/h 16.1 km/h 61% 0 mm
07:29 2.6 °C -4.2 °C 1030 hPa ESE 11.3 km/h 14.5 km/h 61% 0 mm
07:34 2.6 °C -4.2 °C 1030.4 hPa ESE 11.3 km/h 14.5 km/h 61% 0 mm
07:39 2.8 °C -4 °C 1030.4 hPa ESE 12.9 km/h 14.5 km/h 61% 0 mm
07:44 2.9 °C -3.9 °C 1030.4 hPa ESE 11.3 km/h 14.5 km/h 61% 0 mm
07:49 3 °C -3.8 °C 1030.4 hPa ESE 9.7 km/h 16.1 km/h 61% 0 mm
07:54 3.2 °C -3.8 °C 1030.4 hPa ESE 11.3 km/h 14.5 km/h 60% 0 mm
07:59 3.4 °C -3.8 °C 1030.4 hPa ESE 16.1 km/h 17.7 km/h 59% 0 mm
08:04 3.6 °C -3.4 °C 1030.4 hPa SE 8 km/h 16.1 km/h 60% 0 mm
08:09 3.9 °C -3.4 °C 1030.4 hPa ESE 11.3 km/h 16.1 km/h 59% 0 mm
08:14 4.2 °C -3.3 °C 1030.7 hPa ESE 12.9 km/h 16.1 km/h 58% 0 mm
08:19 4.6 °C -3 °C 1030.7 hPa ESE 12.9 km/h 14.5 km/h 58% 0 mm
08:24 4.8 °C -3.2 °C 1030.7 hPa ESE 6.4 km/h 17.7 km/h 56% 0 mm
08:29 5.2 °C -3.4 °C 1031 hPa SSE 14.5 km/h 19.3 km/h 54% 0 mm
08:34 5.4 °C -3.6 °C 1031 hPa ESE 20.9 km/h 20.9 km/h 52% 0 mm
08:40 5.7 °C -3.4 °C 1031 hPa SE 11.3 km/h 22.5 km/h 52% 0 mm
08:45 5.9 °C -3.4 °C 1031 hPa SE 16.1 km/h 19.3 km/h 51% 0 mm
08:49 6.1 °C -3.3 °C 1031.4 hPa SE 17.7 km/h 24.1 km/h 51% 0 mm
08:55 6.3 °C -3.7 °C 1031 hPa ESE 16.1 km/h 22.5 km/h 49% 0 mm
09:00 6.5 °C -3.2 °C 1031.4 hPa ESE 12.9 km/h 19.3 km/h 50% 0 mm
09:05 6.8 °C -3.2 °C 1031 hPa SE 8 km/h 17.7 km/h 49% 0 mm
09:10 7.1 °C -2.7 °C 1031.4 hPa SE 17.7 km/h 17.7 km/h 50% 0 mm
09:15 7.3 °C -3.3 °C 1031.4 hPa SSE 16.1 km/h 20.9 km/h 47% 0 mm
09:20 7.5 °C -3.1 °C 1031.4 hPa SE 11.3 km/h 20.9 km/h 47% 0 mm
09:25 7.8 °C -2.5 °C 1031 hPa ESE 17.7 km/h 17.7 km/h 48% 0 mm
09:30 8.2 °C -3.1 °C 1031 hPa ESE 22.5 km/h 22.5 km/h 45% 0 mm
09:35 8.4 °C -2.5 °C 1031.4 hPa SE 22.5 km/h 22.5 km/h 46% 0 mm
09:40 8.7 °C -2.9 °C 1031.4 hPa ESE 17.7 km/h 22.5 km/h 44% 0 mm
09:45 8.9 °C -3.7 °C 1031.4 hPa SE 14.5 km/h 22.5 km/h 41% 0 mm
09:50 9.1 °C -3.5 °C 1031.4 hPa SE 17.7 km/h 22.5 km/h 41% 0 mm
09:55 9.3 °C -2.7 °C 1031.4 hPa SSE 14.5 km/h 25.7 km/h 43% 0 mm
10:00 9.5 °C -3.1 °C 1031.4 hPa ESE 19.3 km/h 24.1 km/h 41% 0 mm
10:05 9.8 °C -3.4 °C 1031.4 hPa ESE 20.9 km/h 27.4 km/h 39% 0 mm
10:10 10 °C -3.7 °C 1031.4 hPa SE 16.1 km/h 22.5 km/h 38% 0 mm
10:15 10.2 °C -3.8 °C 1031 hPa SE 16.1 km/h 25.7 km/h 37% 0 mm
10:16 10.2 °C -3.8 °C 1031 hPa SE 22.5 km/h 25.7 km/h 37% 0 mm
10:21 10.5 °C -3.6 °C 1031 hPa East 17.7 km/h 22.5 km/h 37% 0 mm
10:26 10.7 °C -2.4 °C 1031 hPa SE 11.3 km/h 25.7 km/h 40% 0 mm
10:31 11.2 °C -2.2 °C 1031 hPa SSE 17.7 km/h 17.7 km/h 39% 0 mm
10:36 11.4 °C -2.4 °C 1031 hPa SE 11.3 km/h 22.5 km/h 38% 0 mm
10:41 11.7 °C -2.9 °C 1031 hPa SE 14.5 km/h 20.9 km/h 36% 0 mm
10:46 11.7 °C -3.2 °C 1031 hPa SE 14.5 km/h 27.4 km/h 35% 0 mm
10:51 11.8 °C -3.5 °C 1031 hPa SSE 17.7 km/h 25.7 km/h 34% 0 mm
10:56 12.1 °C -2.9 °C 1031 hPa SSE 20.9 km/h 25.7 km/h 35% 0 mm
11:01 12.1 °C -2.9 °C 1031 hPa SE 14.5 km/h 19.3 km/h 35% 0 mm
11:06 12.3 °C -1.6 °C 1031 hPa ESE 14.5 km/h 24.1 km/h 38% 0 mm
11:11 12.3 °C -2.3 °C 1031 hPa SE 12.9 km/h 19.3 km/h 36% 0 mm
11:16 12.4 °C -2.7 °C 1031 hPa SE 20.9 km/h 22.5 km/h 35% 0 mm
11:21 12.8 °C -2.7 °C 1031 hPa SSE 17.7 km/h 27.4 km/h 34% 0 mm
11:26 12.9 °C -3.8 °C 1031 hPa SSE 11.3 km/h 27.4 km/h 31% 0 mm
11:31 13.2 °C -2.7 °C 1031 hPa SE 17.7 km/h 29 km/h 33% 0 mm
11:36 13.1 °C -2.4 °C 1031 hPa ESE 17.7 km/h 22.5 km/h 34% 0 mm
11:41 13.3 °C -3.4 °C 1030.7 hPa SSE 24.1 km/h 30.6 km/h 31% 0 mm
11:46 13.4 °C -3.4 °C 1031 hPa ESE 20.9 km/h 32.2 km/h 31% 0 mm
11:51 13.3 °C -3.9 °C 1030.7 hPa SE 20.9 km/h 25.7 km/h 30% 0 mm
11:56 13.4 °C -3.3 °C 1030.7 hPa SE 20.9 km/h 20.9 km/h 31% 0 mm
12:01 13.6 °C -2.3 °C 1030.7 hPa SE 16.1 km/h 19.3 km/h 33% 0 mm
12:06 13.7 °C -3.6 °C 1030.7 hPa ESE 12.9 km/h 25.7 km/h 30% 0 mm
12:11 14.1 °C -2.3 °C 1030.7 hPa ESE 11.3 km/h 17.7 km/h 32% 0 mm
12:16 14.4 °C -1.7 °C 1030.7 hPa SSE 20.9 km/h 20.9 km/h 33% 0 mm
12:21 14.7 °C -3.1 °C 1030.7 hPa SE 24.1 km/h 24.1 km/h 29% 0 mm
12:26 14.8 °C -4 °C 1030.7 hPa SSW 14.5 km/h 24.1 km/h 27% 0 mm
12:31 14.9 °C -2.5 °C 1030.4 hPa SE 11.3 km/h 22.5 km/h 30% 0 mm
12:37 15.2 °C -3.7 °C 1030.4 hPa SE 16.1 km/h 20.9 km/h 27% 0 mm
12:42 15.1 °C -3.3 °C 1030.4 hPa ESE 16.1 km/h 24.1 km/h 28% 0 mm
12:47 15.1 °C -3.3 °C 1030 hPa ESE 17.7 km/h 20.9 km/h 28% 0 mm
12:52 15.3 °C -3.1 °C 1030 hPa SSE 20.9 km/h 22.5 km/h 28% 0 mm
12:57 15.4 °C -4.5 °C 1030 hPa ESE 20.9 km/h 22.5 km/h 25% 0 mm
13:02 15.3 °C -4.1 °C 1030 hPa ESE 22.5 km/h 25.7 km/h 26% 0 mm
13:07 15.6 °C -3.3 °C 1029.7 hPa SSE 17.7 km/h 24.1 km/h 27% 0 mm
13:12 15.8 °C -3.2 °C 1029.7 hPa SE 14.5 km/h 19.3 km/h 27% 0 mm
13:17 15.8 °C -3.1 °C 1029.7 hPa SE 17.7 km/h 20.9 km/h 27% 0 mm
13:22 15.8 °C -3.6 °C 1029.7 hPa ESE 22.5 km/h 22.5 km/h 26% 0 mm
13:27 15.8 °C -4.2 °C 1029.3 hPa SSE 19.3 km/h 29 km/h 25% 0 mm
13:32 16.1 °C -2.9 °C 1029.3 hPa SE 19.3 km/h 22.5 km/h 27% 0 mm
13:38 16.3 °C -2.2 °C 1029.3 hPa SSE 11.3 km/h 22.5 km/h 28% 0 mm
13:43 16.4 °C -3.6 °C 1029 hPa SE 20.9 km/h 29 km/h 25% 0 mm
13:48 16.6 °C -3 °C 1029 hPa SSE 16.1 km/h 22.5 km/h 26% 0 mm
13:53 16.8 °C -2.3 °C 1029 hPa SE 17.7 km/h 22.5 km/h 27% 0 mm
13:58 16.9 °C -2.2 °C 1028.7 hPa East 20.9 km/h 20.9 km/h 27% 0 mm
14:03 16.7 °C -2.9 °C 1028.7 hPa SSE 11.3 km/h 22.5 km/h 26% 0 mm
14:08 16.8 °C -2.3 °C 1028.3 hPa SSE 25.7 km/h 27.4 km/h 27% 0 mm
14:13 16.9 °C -2.2 °C 1028 hPa SE 9.7 km/h 19.3 km/h 27% 0 mm
14:18 16.8 °C -3.3 °C 1028.3 hPa SSE 17.7 km/h 27.4 km/h 25% 0 mm
14:23 16.9 °C -2.2 °C 1028 hPa SSE 11.3 km/h 25.7 km/h 27% 0 mm
14:28 17.1 °C -2.6 °C 1028 hPa SE 11.3 km/h 19.3 km/h 26% 0 mm
14:33 17.3 °C -1.3 °C 1028 hPa SE 12.9 km/h 22.5 km/h 28% 0 mm
14:38 17.4 °C -2.3 °C 1027.7 hPa SSE 9.7 km/h 25.7 km/h 26% 0 mm
14:43 17.7 °C -2 °C 1027.7 hPa ESE 16.1 km/h 27.4 km/h 26% 0 mm
14:48 17.7 °C -2.6 °C 1027.3 hPa SE 25.7 km/h 25.7 km/h 25% 0 mm
14:53 17.7 °C -3.7 °C 1027.3 hPa SE 16.1 km/h 20.9 km/h 23% 0 mm
14:58 17.8 °C -2.5 °C 1027.3 hPa SSE 16.1 km/h 24.1 km/h 25% 0 mm
15:03 17.8 °C -3 °C 1027.3 hPa SE 14.5 km/h 22.5 km/h 24% 0 mm
15:08 17.8 °C -3.6 °C 1027 hPa East 12.9 km/h 27.4 km/h 23% 0 mm
15:13 17.9 °C -1.9 °C 1027 hPa ESE 17.7 km/h 24.1 km/h 26% 0 mm
15:18 17.9 °C -3.5 °C 1027 hPa SE 17.7 km/h 22.5 km/h 23% 0 mm
15:23 17.9 °C -3.5 °C 1027 hPa SE 17.7 km/h 25.7 km/h 23% 0 mm
15:28 17.9 °C -4.1 °C 1027 hPa SE 14.5 km/h 25.7 km/h 22% 0 mm
15:33 17.9 °C -4.7 °C 1026.6 hPa SSE 17.7 km/h 27.4 km/h 21% 0 mm
15:38 18.1 °C -3.9 °C 1027 hPa SE 33.8 km/h 33.8 km/h 22% 0 mm
15:43 18.1 °C -4.6 °C 1027 hPa SSE 20.9 km/h 24.1 km/h 21% 0 mm
15:48 18.3 °C -2.1 °C 1027 hPa SE 20.9 km/h 20.9 km/h 25% 0 mm
15:53 18.3 °C -3.8 °C 1026.6 hPa SE 14.5 km/h 22.5 km/h 22% 0 mm
15:58 18.3 °C -3.2 °C 1027 hPa SE 20.9 km/h 20.9 km/h 23% 0 mm
16:03 18.2 °C -2.7 °C 1027 hPa SSE 16.1 km/h 24.1 km/h 24% 0 mm
16:08 18.3 °C -2.6 °C 1027 hPa SE 11.3 km/h 20.9 km/h 24% 0 mm
16:13 18.2 °C -3.8 °C 1026.6 hPa SE 12.9 km/h 22.5 km/h 22% 0 mm
16:19 18.3 °C -3.2 °C 1026.6 hPa SE 16.1 km/h 25.7 km/h 23% 0 mm
16:24 18 °C -2.8 °C 1026.6 hPa SE 20.9 km/h 29 km/h 24% 0 mm
16:29 17.9 °C -3.5 °C 1026.6 hPa SSE 19.3 km/h 30.6 km/h 23% 0 mm
16:34 17.9 °C -3.5 °C 1026.6 hPa SE 17.7 km/h 25.7 km/h 23% 0 mm
16:39 18 °C -3.4 °C 1026.6 hPa SE 19.3 km/h 24.1 km/h 23% 0 mm
16:44 18.1 °C -2.2 °C 1026.6 hPa South 16.1 km/h 24.1 km/h 25% 0 mm
16:49 17.9 °C -2.9 °C 1026.6 hPa ESE 14.5 km/h 24.1 km/h 24% 0 mm
16:54 17.4 °C -2.8 °C 1026.3 hPa ESE 12.9 km/h 20.9 km/h 25% 0 mm
16:59 17.2 °C -3 °C 1026.3 hPa SE 17.7 km/h 30.6 km/h 25% 0 mm
17:04 17.3 °C -2.9 °C 1026.3 hPa ESE 12.9 km/h 19.3 km/h 25% 0 mm
17:09 17.6 °C -1.1 °C 1026.3 hPa ESE 8 km/h 16.1 km/h 28% 0 mm
17:14 17.6 °C -2.7 °C 1026.3 hPa SE 27.4 km/h 27.4 km/h 25% 0 mm
17:19 17.4 °C -2.8 °C 1026.3 hPa SE 14.5 km/h 20.9 km/h 25% 0 mm
17:24 17.2 °C -3 °C 1026.3 hPa SSE 16.1 km/h 29 km/h 25% 0 mm
17:29 17.1 °C -3.1 °C 1026.6 hPa SSE 17.7 km/h 25.7 km/h 25% 0 mm
17:34 16.9 °C -2.7 °C 1026.6 hPa SE 11.3 km/h 25.7 km/h 26% 0 mm
17:39 16.8 °C -2.8 °C 1026.3 hPa SE 8 km/h 14.5 km/h 26% 0 mm
17:44 16.7 °C -2.4 °C 1026.3 hPa SE 16.1 km/h 16.1 km/h 27% 0 mm
17:49 16.7 °C -2.4 °C 1026.3 hPa SE 14.5 km/h 22.5 km/h 27% 0 mm
17:54 16.6 °C -2.9 °C 1026.3 hPa ESE 9.7 km/h 22.5 km/h 26% 0 mm
17:59 16.5 °C -2.6 °C 1026.3 hPa SE 9.7 km/h 22.5 km/h 27% 0 mm
18:04 16.4 °C -1.7 °C 1026.3 hPa ESE 9.7 km/h 17.7 km/h 29% 0 mm
18:09 16.2 °C -2.3 °C 1026.3 hPa SSE 16.1 km/h 17.7 km/h 28% 0 mm
18:14 16 °C -2 °C 1026.3 hPa SE 6.4 km/h 12.9 km/h 29% 0 mm
18:19 15.8 °C -2.2 °C 1026.3 hPa ESE 11.3 km/h 12.9 km/h 29% 0 mm
18:24 15.7 °C -2.3 °C 1026.3 hPa SE 4.8 km/h 14.5 km/h 29% 0 mm
18:29 15.6 °C -2.4 °C 1026 hPa SE 8 km/h 12.9 km/h 29% 0 mm
18:34 15.4 °C -1.6 °C 1026 hPa SE 9.7 km/h 12.9 km/h 31% 0 mm
18:40 15.1 °C -1.9 °C 1026 hPa ESE 8 km/h 11.3 km/h 31% 0 mm
18:45 14.9 °C -1.7 °C 1026 hPa SE 8 km/h 12.9 km/h 32% 0 mm
18:50 14.9 °C -2.1 °C 1026.3 hPa SE 8 km/h 11.3 km/h 31% 0 mm
18:55 14.9 °C -1.6 °C 1026.3 hPa SE 6.4 km/h 14.5 km/h 32% 0 mm
19:00 14.8 °C -2.6 °C 1026.3 hPa SE 14.5 km/h 16.1 km/h 30% 0 mm
19:05 14.8 °C -2.6 °C 1026.3 hPa SE 12.9 km/h 14.5 km/h 30% 0 mm
19:10 14.8 °C -2.6 °C 1026.3 hPa SSE 8 km/h 12.9 km/h 30% 0 mm
19:15 14.7 °C -2.7 °C 1026.3 hPa SSE 8 km/h 16.1 km/h 30% 0 mm
19:20 14.6 °C -2.8 °C 1026.6 hPa SE 8 km/h 12.9 km/h 30% 0 mm
19:25 14.4 °C -2.4 °C 1026.6 hPa SE 9.7 km/h 12.9 km/h 31% 0 mm
19:31 14.4 °C -2.5 °C 1026.3 hPa SE 6.4 km/h 12.9 km/h 31% 0 mm
19:36 14.4 °C -2.5 °C 1026.3 hPa SSE 12.9 km/h 16.1 km/h 31% 0 mm
19:41 14.4 °C -2.4 °C 1026.3 hPa SSE 12.9 km/h 16.1 km/h 31% 0 mm
19:46 14.4 °C -2.4 °C 1026.6 hPa SE 12.9 km/h 14.5 km/h 31% 0 mm
19:51 14.3 °C -2.6 °C 1026.6 hPa SE 8 km/h 14.5 km/h 31% 0 mm
19:56 14.3 °C -2.6 °C 1026.6 hPa SE 14.5 km/h 16.1 km/h 31% 0 mm
20:01 14.3 °C -2.6 °C 1026.6 hPa SE 8 km/h 14.5 km/h 31% 0 mm
20:06 14.2 °C -2.2 °C 1026.6 hPa SSE 11.3 km/h 14.5 km/h 32% 0 mm
20:11 14.1 °C -1.9 °C 1026.6 hPa SSE 8 km/h 12.9 km/h 33% 0 mm
20:16 13.9 °C -2.1 °C 1026.6 hPa SE 12.9 km/h 14.5 km/h 33% 0 mm
20:21 13.9 °C -2.1 °C 1026.6 hPa SSE 6.4 km/h 12.9 km/h 33% 0 mm
20:26 13.8 °C -2.2 °C 1027 hPa SE 11.3 km/h 11.3 km/h 33% 0 mm
20:31 13.8 °C -2.2 °C 1027 hPa SSE 14.5 km/h 14.5 km/h 33% 0 mm
20:36 13.7 °C -1.8 °C 1027 hPa SE 8 km/h 9.7 km/h 34% 0 mm
20:41 13.6 °C -1.9 °C 1027 hPa SE 8 km/h 9.7 km/h 34% 0 mm
20:46 13.6 °C -1.6 °C 1027 hPa SE 6.4 km/h 12.9 km/h 35% 0 mm
20:51 13.5 °C -1.7 °C 1027 hPa ESE 6.4 km/h 9.7 km/h 35% 0 mm
20:56 13.2 °C -1.6 °C 1027.3 hPa SE 9.7 km/h 12.9 km/h 36% 0 mm
21:01 13.1 °C -1.7 °C 1027.3 hPa SE 6.4 km/h 12.9 km/h 36% 0 mm
21:06 13 °C -1.3 °C 1027.7 hPa SE 9.7 km/h 9.7 km/h 37% 0 mm
21:11 12.8 °C -1.5 °C 1027.7 hPa SE 6.4 km/h 8 km/h 37% 0 mm
21:16 12.7 °C -1.3 °C 1027.7 hPa SE 4.8 km/h 8 km/h 38% 0 mm
21:21 12.5 °C -1.1 °C 1027.7 hPa ESE 4.8 km/h 8 km/h 39% 0 mm
21:26 12.3 °C -1.2 °C 1028 hPa SE 9.7 km/h 12.9 km/h 39% 0 mm
21:31 12.3 °C -1.3 °C 1028 hPa SE 8 km/h 11.3 km/h 39% 0 mm
21:36 12.1 °C -1.1 °C 1028 hPa SE 6.4 km/h 9.7 km/h 40% 0 mm
21:41 12 °C -1.2 °C 1028 hPa South 9.7 km/h 9.7 km/h 40% 0 mm
21:46 12 °C -1.2 °C 1028 hPa ESE 8 km/h 11.3 km/h 40% 0 mm
21:51 11.9 °C -0.9 °C 1028 hPa SE 11.3 km/h 11.3 km/h 41% 0 mm
21:56 11.8 °C -1.1 °C 1028 hPa ESE 6.4 km/h 12.9 km/h 41% 0 mm
22:01 11.8 °C -1.1 °C 1028 hPa SSE 11.3 km/h 12.9 km/h 41% 0 mm
22:07 11.8 °C -0.7 °C 1028 hPa SE 9.7 km/h 9.7 km/h 42% 0 mm
22:12 11.7 °C -0.8 °C 1028 hPa SE 6.4 km/h 11.3 km/h 42% 0 mm
22:17 11.6 °C -0.8 °C 1028 hPa SE 8 km/h 9.7 km/h 42% 0 mm
22:22 11.6 °C -0.6 °C 1028 hPa SE 6.4 km/h 8 km/h 43% 0 mm
22:27 11.6 °C -0.6 °C 1028 hPa ESE 6.4 km/h 11.3 km/h 43% 0 mm
22:32 11.6 °C -0.6 °C 1028 hPa SE 9.7 km/h 17.7 km/h 43% 0 mm
22:37 11.6 °C -0.6 °C 1028 hPa ESE 8 km/h 16.1 km/h 43% 0 mm
22:42 11.5 °C -0.6 °C 1028 hPa ESE 6.4 km/h 12.9 km/h 43% 0 mm
22:47 11.4 °C -0.4 °C 1028 hPa ESE 8 km/h 11.3 km/h 44% 0 mm
22:52 11.4 °C -0.4 °C 1028 hPa ESE 8 km/h 11.3 km/h 44% 0 mm
22:57 11.3 °C -0.5 °C 1028 hPa ESE 6.4 km/h 12.9 km/h 44% 0 mm
23:02 11.3 °C -0.6 °C 1028 hPa SE 11.3 km/h 12.9 km/h 44% 0 mm
23:07 11.1 °C -0.7 °C 1027.7 hPa SE 12.9 km/h 12.9 km/h 44% 0 mm
23:12 11.2 °C -0.6 °C 1027.7 hPa SE 12.9 km/h 12.9 km/h 44% 0 mm
23:17 11.2 °C -0.6 °C 1027.7 hPa ESE 6.4 km/h 12.9 km/h 44% 0 mm
23:22 11.1 °C -0.4 °C 1027.7 hPa ENE 9.7 km/h 12.9 km/h 45% 0 mm
23:27 11.1 °C -0.4 °C 1027.7 hPa ESE 12.9 km/h 12.9 km/h 45% 0 mm
23:32 11.1 °C -0.4 °C 1027.7 hPa ESE 9.7 km/h 16.1 km/h 45% 0 mm
23:37 11.2 °C -0.3 °C 1027.7 hPa ESE 12.9 km/h 17.7 km/h 45% 0 mm
23:42 11.2 °C -0.3 °C 1027.7 hPa SE 8 km/h 12.9 km/h 45% 0 mm
23:47 11.2 °C -0.3 °C 1027.7 hPa ESE 11.3 km/h 12.9 km/h 45% 0 mm
23:52 11.3 °C -0.2 °C 1027.7 hPa SE 11.3 km/h 16.1 km/h 45% 0 mm
23:57 11.2 °C -0.6 °C 1027.7 hPa SE 11.3 km/h 12.9 km/h 44% 0 mm
Compliments of Weather Underground